Location: Horowhenua
(40.7500°S, 175.3333°E)
Time: 05:50:39
(UTC+00:00)

Cosmos 2233 Rocket - Pass Details

Date: 28 January 2023
Orbit: 952 x 991 km, 82.9° (Epoch: 01 April)

Event Time Altitude Azimuth Distance (km) Brightness Sun altitude
Exits shadow 15:18:15 18° 8° (N) 2,184 5.5 -19.5°
Maximum altitude 15:22:57 67° 87° (E) 1,037 4.2 -18.9°
Drops below altitude 10° 15:29:06 10° 167° (SSE) 2,712 7.2 -18.1°
Sets 15:31:38 0° 169° (S) 3,666 8.0 -17.8°
